Terminal Aerodrome Forecast
Issued by NWS State College, PA

Home | Current Version | Previous Version | Text Only | Print | Product List | Glossary On
Versions: 1 2 3 4 5 6 7 8 9 10 11 12 13 14 15 16 17 18 19 20 21 22 23 24 25 26 27 28 29 30 31 32 33 34 35 36 37 38 39 40 41 42 43 44 45 46 47
000
FTUS41 KCTP 221720
TAFMDT
TAF
KMDT 221720Z 2218/2318 22007KT P6SM SCT025 BKN080
     FM230700 18003KT 4SM BR SKC
     FM231500 26005KT 6SM HZ SKC=

USA.gov is the U.S. government's official web portal to all federal, state and local government web resources and services.